Flag for Vietnam Weather past 2 weeks in Hanoi, Vietnam

Now
91 °F

Partly sunny.


Feels Like: 100 °F
Forecast: 78 / 87 °F
Wind: 13 mph from Northeast

Location: Ha Noi Airport

Current Time: Jul 4, 2015 at 2:22:02 PM

Latest Report: Jul 4, 2015 at 2:00 PM


Visibility: N/A

Pressure: 29.50 "Hg

Humidity: 56%

Dew point: 73 °F

Location of HanoiLocation

Historic Weather in Hanoi — Graph

°F

Hanoi temperature yesterday

Maximum temperature yesterday: 102 °F (at 3:30 PM)
Minimum temperature yesterday: 86 °F (at 3:30 AM)
Average temperature yesterday: 94 °F

Past Weeks' High & Low Weather Summary

 TemperatureHumidityPressure
High102 °F (Jul 1, 3:00 PM)100% (Jun 22, 5:00 AM)29.74 "Hg (Jun 22, 5:00 AM)
Low77 °F (Jun 20, 11:00 AM)35% (Jun 30, 1:30 PM)29.33 "Hg (Jun 24, 4:00 PM)
Average90 °F67%29.55 "Hg
* Reported Jun 19 1:00 PM — Jul 4 1:30 PM, Hanoi, Weather by CustomWeather, © 2015

Note: Actual official high and low records may vary slightly from our data, if they occured in-between our weather recording intervals... More about our weather records

Advertising

Hanoi weather history for previous 24 hours

 ConditionsComfort  
Time TempWeatherWind HumidityBarometerVisibility
1:30 PM
Sat, Jul 4
91 °FSunny.14 mph56%29.50 "Hg10 mi
1:00 PM91 °FSunny.15 mph59%29.50 "Hg10 mi
12:30 PM91 °FPartly sunny.12 mph63%29.53 "HgN/A
12:00 PM93 °FPartly sunny.12 mph59%29.53 "HgN/A
11:30 AM93 °FBroken clouds.12 mph59%29.53 "HgN/A
11:00 AM93 °FPartly sunny.7 mph59%29.53 "HgN/A
10:30 AM93 °FPartly sunny.8 mph59%29.53 "HgN/A
10:00 AM91 °FPartly sunny.8 mph63%29.53 "HgN/A
9:30 AM91 °FPartly sunny.9 mph63%29.53 "HgN/A
9:00 AM90 °FSunny.8 mph63%29.53 "Hg10 mi
8:30 AM90 °FSunny.8 mph67%29.53 "Hg10 mi
8:00 AM90 °FPassing clouds.7 mph71%29.50 "HgN/A
7:30 AM88 °FPassing clouds.7 mph70%29.50 "HgN/A
7:00 AM88 °FClear.7 mph75%29.50 "Hg6 mi
6:30 AM88 °FSunny.7 mph75%29.50 "Hg10 mi
6:00 AM86 °FSunny.8 mph79%29.47 "Hg10 mi
5:30 AM86 °FSunny.8 mph75%29.47 "Hg10 mi
5:00 AM88 °FClear.8 mph70%29.47 "Hg10 mi
4:30 AM88 °FClear.7 mph70%29.47 "Hg10 mi
4:00 AM88 °FClear.8 mph70%29.47 "Hg10 mi
3:30 AM88 °FClear.8 mph75%29.47 "Hg10 mi
3:00 AM88 °FPassing clouds.7 mph75%29.47 "HgN/A
2:30 AM88 °FPassing clouds.6 mph79%29.47 "HgN/A
2:00 AM88 °FClear.7 mph75%29.47 "Hg5 mi
1:30 AM88 °FClear.8 mph75%29.47 "Hg5 mi
1:00 AM90 °FClear.6 mph71%29.47 "Hg5 mi
12:30 AM90 °FClear.7 mph67%29.47 "Hg10 mi
12:00 AM90 °FClear.8 mph67%29.47 "Hg10 mi
11:30 PM
Fri, Jul 3
91 °FClear.9 mph63%29.50 "Hg10 mi
11:00 PM91 °FClear.7 mph63%29.50 "Hg10 mi
10:30 PM93 °FClear.7 mph59%29.50 "Hg10 mi
10:00 PM95 °FClear.10 mph53%29.50 "Hg10 mi
9:30 PM95 °FClear.12 mph56%29.47 "Hg10 mi
9:00 PM95 °FClear.9 mph53%29.45 "Hg10 mi
8:30 PM95 °FClear.8 mph53%29.45 "Hg6 mi
8:00 PM95 °FClear.7 mph56%29.45 "Hg4 mi
7:30 PM97 °FClear.6 mph50%29.45 "Hg10 mi
7:00 PM97 °FClear.6 mph53%29.45 "Hg10 mi
6:30 PM99 °FSunny.5 mph42%29.42 "Hg10 mi
6:00 PM99 °FSunny.6 mph39%29.42 "Hg10 mi
5:30 PM100 °FPartly sunny.3 mph37%29.42 "HgN/A
5:00 PM100 °FPartly sunny.6 mph37%29.42 "HgN/A
4:30 PM102 °FSunny.5 mph35%29.42 "Hg10 mi
4:00 PM100 °FPassing clouds.5 mph40%29.42 "HgN/A
3:30 PM102 °FPassing clouds.6 mph37%29.45 "HgN/A
3:00 PM100 °FSunny.5 mph37%29.45 "Hg10 mi
2:30 PM100 °FSunny.5 mph40%29.45 "Hg10 mi
2:00 PM100 °FSunny.5 mph40%29.45 "Hg10 mi
Weather by CustomWeather, © 2015

See weather overviewHow to use our weather pages